Theta_e
315 317 318 321 325 327 326 325 323 323 322 315 315 318 318 319 320 320 319 319 319 319 317 317 318 318 318 318 319 318 318 318 318 316 317 325 323 321 323 322 324 326 326 329 333 335 338 339 339 340 342 342 341 341 340 341 340 340 341 341 340 339 339 338 338 337 336 336 336 336 335 335 334 335 336 335 335 335 336 334 331 328 326 326 329 327 324 327 332 333 330 335 338 339 342 343 341
316 318 321 324 325 328 327 324 321 318 317 313 314 318 317 320 321 320 319 319 320 318 315 316 317 317 315 315 316 317 319 319 318 318 322 324 320 321 322 321 324 325 326 327 331 333 337 339 338 338 341 342 341 341 340 340 340 340 340 340 340 339 339 338 338 337 337 336 336 336 335 335 335 336 336 335 334 336 337 336 333 331 327 322 325 329 330 330 333 337 336 337 338 338 341 341 339
318 321 324 325 325 326 327 324 319 314 313 311 313 319 318 319 320 319 318 318 318 315 313 315 316 317 316 316 317 318 319 318 318 319 320 321 319 321 320 321 323 325 326 326 328 330 334 338 337 337 339 341 341 340 339 339 340 340 340 340 339 338 339 338 338 338 337 337 337 337 336 336 336 336 335 333 334 336 337 337 335 334 333 330 326 328 333 333 332 336 338 338 339 339 341 339 337
320 322 324 326 325 324 326 324 320 315 312 312 313 318 319 318 318 318 317 317 316 314 314 316 316 316 317 318 318 317 318 317 318 318 319 321 319 320 319 321 324 324 326 325 326 327 332 335 336 336 337 340 340 340 339 339 339 340 339 339 339 338 338 338 338 338 338 338 338 337 337 337 336 336 334 333 335 336 336 336 336 336 336 336 333 332 334 335 333 335 338 339 340 341 341 338 338
321 321 323 326 326 323 323 323 321 316 313 313 313 317 319 317 317 317 317 316 315 314 315 316 317 316 314 315 315 316 317 317 319 318 319 320 317 317 318 320 324 325 325 324 324 326 330 332 333 335 336 338 339 339 339 339 339 339 339 339 339 338 338 336 336 338 338 338 337 337 337 337 336 336 334 333 335 335 335 335 336 336 336 337 337 336 335 334 334 335 339 340 339 340 338 338 339
321 320 321 323 322 321 321 318 316 315 314 316 315 317 318 317 317 316 316 316 314 314 314 315 316 315 315 315 314 316 318 318 319 318 318 319 316 316 318 320 323 324 324 323 323 325 328 329 330 334 335 337 339 339 338 338 338 339 339 338 338 338 338 336 335 337 338 337 337 337 337 337 336 335 335 335 335 335 335 335 335 336 336 337 337 337 335 336 335 334 338 339 340 340 336 338 339
321 321 321 321 319 319 320 315 314 315 316 318 316 317 316 316 316 314 316 316 314 313 313 314 314 314 316 315 314 316 317 316 318 319 317 317 317 317 318 320 322 324 324 322 322 323 325 326 328 333 335 336 338 338 338 338 338 338 338 338 338 338 337 336 336 337 338 337 337 337 336 336 336 335 335 335 335 335 335 334 335 336 335 336 336 336 336 337 334 333 338 339 341 340 337 338 338
318 321 321 322 320 319 318 315 316 317 316 316 316 316 315 316 315 314 316 316 315 314 313 312 312 314 315 313 314 317 314 313 315 316 314 315 316 316 318 319 322 324 324 323 322 322 322 323 326 331 334 336 336 336 337 337 338 338 338 338 338 338 337 337 337 338 339 337 336 336 335 335 334 334 334 334 334 334 335 334 335 335 336 335 336 337 336 336 331 332 339 340 340 339 338 338 337
316 319 321 321 320 318 317 316 317 317 317 316 315 316 316 315 314 315 315 316 315 314 313 311 311 313 314 313 314 317 316 314 312 312 312 313 313 314 316 318 322 325 324 323 323 322 321 321 324 328 331 334 335 335 336 337 338 337 338 338 338 338 337 338 338 338 338 337 336 335 334 333 333 333 333 334 334 334 334 334 335 336 336 335 336 336 336 335 329 332 340 340 340 339 338 338 337
317 318 320 321 318 316 315 315 317 317 316 315 315 315 315 314 313 315 315 315 315 314 312 308 310 312 313 313 313 316 316 313 311 313 313 311 312 312 313 315 319 324 324 324 324 323 322 320 321 325 328 330 332 334 336 336 337 337 337 337 338 338 337 338 338 338 337 336 335 333 333 332 332 331 332 334 333 333 333 333 334 335 336 336 336 336 337 335 330 334 340 339 340 339 338 337 336
318 318 318 319 316 312 313 314 317 317 317 315 315 315 314 312 312 314 314 314 314 314 311 308 311 312 312 312 314 316 313 311 311 313 313 311 312 311 312 314 317 321 324 325 324 324 323 321 320 323 325 327 330 332 334 335 336 336 336 337 337 337 337 337 337 337 336 335 334 333 332 331 331 330 332 333 333 333 333 332 333 335 336 336 337 337 337 336 333 337 340 339 340 339 338 337 336
319 319 319 318 315 313 314 315 317 318 318 317 316 314 312 311 312 314 313 314 313 313 312 311 312 311 312 313 315 316 313 312 311 311 312 311 311 311 312 313 315 319 323 325 325 324 323 322 320 321 323 325 327 329 331 333 334 335 335 336 337 337 336 337 337 337 335 334 333 332 332 330 330 330 331 332 332 333 333 333 333 335 335 335 336 337 337 336 336 338 339 339 339 339 338 337 336
319 319 319 318 316 317 317 317 317 319 319 317 315 311 309 311 313 313 313 313 312 313 312 311 311 310 312 313 315 316 315 313 311 311 311 311 311 311 312 314 316 319 321 323 324 324 324 322 320 319 321 323 325 327 329 330 332 333 333 335 336 336 336 337 336 336 335 333 332 332 331 330 330 330 332 332 332 333 333 334 334 334 334 334 335 336 337 336 337 338 338 339 338 338 336 335 335
319 318 319 318 316 318 317 317 318 317 316 316 314 310 309 311 312 311 312 313 313 313 311 309 310 310 312 313 315 316 316 313 310 311 311 311 312 312 313 315 317 319 321 322 324 324 324 323 321 319 320 322 324 326 328 328 330 331 332 334 335 335 335 336 336 335 334 333 331 331 330 330 330 330 332 332 332 332 333 332 332 333 333 334 334 335 336 337 337 338 338 337 335 334 334 333 331
318 318 319 320 317 318 318 318 318 316 316 316 313 309 309 311 311 310 311 312 313 311 309 309 309 311 313 313 314 315 315 312 310 310 310 311 311 312 314 315 318 320 322 323 323 324 324 322 320 319 319 321 324 326 328 328 329 331 331 333 334 334 334 335 335 334 333 332 331 331 330 330 330 330 331 332 331 332 332 332 331 332 333 334 334 335 335 337 337 338 338 335 333 332 330 330 328
316 318 319 319 317 317 317 318 317 316 316 315 310 308 311 312 310 310 310 309 311 310 309 310 309 310 312 312 313 315 314 311 310 310 310 312 313 314 314 315 316 319 321 322 323 323 322 321 318 318 318 319 322 325 326 328 329 330 331 332 333 333 333 334 335 334 332 332 332 331 330 330 330 330 331 331 331 332 332 332 332 333 334 334 333 334 335 336 337 338 336 334 333 330 329 329 328
316 318 319 317 316 316 317 318 317 315 316 315 311 309 312 312 309 309 308 306 309 311 310 310 310 310 310 311 313 313 312 310 309 309 311 315 317 317 317 318 317 317 318 319 321 321 320 319 317 316 316 318 320 323 325 326 329 330 331 332 332 332 332 333 334 333 333 332 332 331 330 330 330 330 331 330 330 331 332 332 332 333 334 333 332 333 334 336 337 337 335 333 331 329 330 330 328
317 319 318 315 316 317 316 317 315 315 315 315 314 311 311 312 311 309 308 309 310 311 311 311 310 310 311 312 312 311 310 310 309 310 312 316 318 318 318 319 319 319 319 318 318 318 318 317 315 315 315 317 319 321 323 325 328 330 331 332 332 332 331 333 334 333 333 333 332 331 330 330 330 332 333 331 330 331 332 332 332 333 333 332 332 332 333 335 336 336 335 332 329 329 329 328 326
317 319 317 316 317 316 315 315 314 314 314 314 314 312 310 311 311 309 310 312 312 312 313 313 312 312 313 313 312 311 310 309 310 311 313 314 315 316 315 315 316 317 318 319 319 317 317 316 316 316 316 318 320 321 322 324 328 329 330 332 332 332 331 332 333 333 333 333 332 331 330 331 331 332 333 331 329 331 332 332 332 333 332 331 331 331 332 334 335 335 335 332 329 329 328 327 326
316 317 318 318 316 315 313 313 313 313 313 313 314 312 310 310 309 308 310 312 313 313 313 313 313 313 313 313 312 311 310 310 311 312 313 313 313 313 313 313 313 313 314 316 318 318 318 317 317 318 318 321 323 323 322 324 327 329 329 331 332 332 332 333 333 334 333 332 331 331 330 332 331 331 332 330 328 330 331 332 332 333 332 330 330 330 331 332 334 333 333 331 330 328 327 327 328
315 315 317 316 313 314 313 312 312 311 310 312 312 311 311 309 307 308 310 311 313 313 313 312 312 311 311 311 312 311 311 311 312 312 311 310 310 309 309 310 311 312 313 314 315 316 318 319 319 319 321 323 324 325 324 325 327 328 329 330 332 332 332 333 333 333 333 332 330 330 330 331 330 330 331 330 329 329 330 331 332 332 331 329 329 329 329 330 331 329 328 327 327 326 326 327 327
314 315 316 314 312 314 313 311 311 310 309 310 311 311 310 309 308 309 310 311 313 313 312 311 310 310 309 309 310 311 311 312 311 309 308 308 307 307 307 308 308 309 311 312 313 314 316 318 320 321 322 323 325 326 326 325 326 327 328 329 331 332 332 332 332 332 332 331 330 328 329 329 329 330 330 330 330 328 329 331 332 332 331 329 329 328 327 327 327 325 324 324 323 323 324 324 323
314 315 313 312 312 313 312 310 310 309 308 310 311 310 308 309 310 309 309 311 312 312 311 310 309 309 309 309 310 312 311 310 308 307 307 307 307 306 307 307 307 308 309 310 311 312 314 316 319 321 322 323 324 325 326 326 326 327 328 329 330 331 331 332 332 331 331 331 330 328 329 329 329 329 329 330 329 328 329 331 331 331 331 329 328 327 326 326 325 325 324 324 322 321 321 321 321
313 315 312 311 311 311 311 309 309 308 308 310 309 308 308 311 311 307 308 311 311 311 309 308 309 310 310 310 311 311 309 307 306 306 306 305 306 305 306 306 306 307 308 308 309 310 312 313 316 319 321 322 323 324 325 325 326 327 327 328 329 330 331 331 331 330 330 330 330 329 329 329 329 329 329 328 329 329 329 330 330 330 330 328 327 327 326 326 325 324 324 323 322 322 321 321 320
312 314 312 311 310 309 310 308 308 308 307 308 307 308 311 310 309 308 309 311 309 309 308 308 309 310 310 311 310 308 306 306 306 305 305 305 305 305 305 305 304 305 305 306 307 308 309 311 313 316 319 321 322 323 324 324 325 326 326 327 328 329 330 330 330 330 329 329 329 329 329 329 328 328 329 328 328 329 329 329 329 329 329 327 326 326 326 325 324 323 322 321 321 322 321 321 321
312 312 311 310 311 310 309 308 308 307 307 307 307 311 312 308 307 310 310 309 308 309 310 309 309 309 310 309 307 305 304 305 305 304 304 304 304 304 304 304 304 304 304 305 305 306 308 309 311 314 316 319 321 322 323 324 325 325 325 326 327 328 328 329 330 329 329 328 328 328 328 328 327 328 329 328 328 328 329 329 328 328 328 327 326 325 325 324 323 322 321 320 321 321 321 320 321
309 309 310 309 310 310 308 308 308 307 306 306 309 312 311 308 308 311 310 308 309 310 311 309 309 309 308 306 305 304 304 304 304 303 303 303 302 303 303 303 304 304 304 304 304 305 306 308 309 311 314 318 320 321 323 324 324 325 325 325 327 327 327 328 329 329 328 327 327 327 328 328 327 328 329 328 327 328 329 329 327 327 327 326 326 325 324 324 322 321 320 320 319 319 320 320 319
307 308 309 310 311 310 308 309 309 309 308 306 309 311 310 308 310 312 310 309 311 311 310 310 309 308 306 305 304 304 304 303 302 302 302 302 301 302 302 303 304 304 304 304 304 304 305 306 308 310 312 315 318 320 321 323 324 324 324 324 325 326 327 327 327 328 328 327 327 326 327 327 327 328 329 328 327 327 328 328 326 326 326 326 325 325 324 324 324 321 319 320 319 318 320 320 318
307 307 310 312 313 311 310 310 310 310 309 305 307 310 311 311 311 311 310 310 311 310 309 309 308 306 305 304 303 303 303 302 301 301 301 301 301 301 302 302 303 304 304 304 304 304 305 306 307 309 311 314 316 318 320 321 323 324 324 324 325 326 327 327 327 327 328 327 326 326 327 327 327 328 328 327 326 327 327 328 327 324 324 325 325 326 324 323 324 322 320 319 319 319 320 320 319
308 307 309 313 313 312 312 310 310 311 308 306 308 311 312 313 312 310 310 310 310 309 309 308 306 305 304 304 303 302 301 301 300 300 300 300 300 301 301 301 302 303 303 304 304 304 305 305 306 308 310 312 314 317 319 320 322 322 323 324 325 326 327 327 327 327 327 327 326 326 326 326 327 327 327 327 326 326 326 327 327 324 322 323 324 325 324 324 324 323 321 319 319 319 320 319 319
310 309 310 314 312 312 314 311 310 311 308 308 311 312 312 313 312 311 311 310 309 308 307 306 305 304 303 303 302 301 301 301 300 299 299 299 299 299 300 301 301 302 302 303 303 303 304 304 305 307 308 309 311 314 317 319 320 320 321 323 324 325 326 326 326 327 326 326 326 325 326 326 326 326 327 327 325 325 326 326 326 323 321 322 323 323 323 323 324 323 322 319 318 318 319 319 318
312 311 312 316 313 313 315 310 309 311 309 310 312 313 313 313 312 311 311 310 308 308 306 304 303 303 303 302 301 300 300 300 300 299 298 298 298 299 299 300 301 302 302 302 302 302 303 304 304 306 307 308 310 311 314 317 319 318 320 322 323 323 324 325 325 326 326 326 326 325 325 325 325 325 325 325 325 325 326 325 324 323 321 320 321 322 322 322 322 323 322 320 318 317 318 318 318
314 313 314 316 315 314 314 310 308 310 310 310 311 312 313 312 311 311 310 309 308 306 304 303 302 302 301 301 300 300 299 299 299 299 298 298 298 298 298 299 300 302 302 301 301 301 302 303 304 305 306 308 308 309 311 314 317 318 319 320 323 324 324 324 324 324 325 325 325 324 324 324 324 324 324 324 324 325 325 325 323 322 321 319 320 321 321 321 321 321 320 320 319 317 317 317 317
314 315 315 315 314 313 314 312 309 309 310 310 311 312 312 311 311 311 309 308 307 305 303 302 301 301 301 300 300 299 299 298 298 298 298 298 298 297 298 299 301 302 302 301 301 301 301 301 302 303 304 305 307 308 310 313 316 317 318 319 321 323 323 324 324 324 325 324 324 323 323 323 323 324 323 324 324 324 324 324 322 322 322 320 319 320 320 320 321 320 319 318 318 317 317 317 317
314 314 315 315 314 313 313 313 311 309 309 310 311 312 311 310 310 310 308 307 305 304 302 301 300 300 300 300 299 299 299 298 298 298 298 298 297 297 297 298 300 302 301 300 300 300 300 300 301 302 302 304 305 307 308 310 313 316 318 318 319 321 323 323 324 324 324 324 323 323 323 323 323 323 323 324 324 324 323 323 322 321 321 321 319 320 320 320 320 319 318 317 317 317 317 317 317
312 313 313 313 314 314 313 312 311 308 308 309 310 310 310 309 309 308 307 305 305 303 302 301 300 299 299 299 299 299 298 298 298 298 298 297 297 297 297 297 299 300 300 300 300 300 300 300 300 301 301 302 304 305 306 307 309 311 315 317 318 320 322 323 323 323 323 324 323 323 323 323 323 323 324 324 324 324 323 322 321 319 321 321 319 319 319 319 321 319 317 316 316 316 316 317 317
310 312 313 313 314 314 312 311 310 307 307 308 309 309 308 308 308 307 305 303 303 302 301 300 299 299 299 299 299 298 298 298 298 298 297 297 297 297 296 296 298 299 299 298 299 299 299 300 300 300 300 301 303 304 305 305 306 307 309 313 316 318 320 322 323 323 323 323 323 323 323 323 323 323 323 324 323 323 322 322 321 318 319 319 319 318 318 320 321 320 317 316 316 315 314 316 317
310 312 313 313 314 313 311 310 310 307 306 307 307 307 307 308 307 305 302 300 300 301 300 299 298 298 298 298 298 297 297 297 297 297 297 297 296 296 296 296 297 298 298 298 298 297 298 299 299 299 300 300 302 303 304 304 305 305 306 308 311 314 317 320 321 322 323 323 323 323 323 323 322 322 323 323 323 322 321 321 320 319 318 318 318 318 318 320 321 319 317 315 315 314 314 315 317
311 312 313 313 313 312 311 310 309 306 305 305 306 306 307 307 307 304 301 299 298 298 299 298 298 297 298 298 297 296 296 296 296 296 296 296 296 296 295 295 296 297 298 298 298 298 298 298 298 299 299 299 300 302 303 303 304 304 304 306 308 311 314 317 318 321 322 323 323 322 322 322 322 322 322 322 322 321 320 320 320 320 319 317 317 317 318 318 318 318 317 315 314 314 314 314 317
312 312 312 313 311 310 310 309 307 306 305 305 306 306 306 306 306 304 300 298 297 296 297 297 298 298 298 298 297 295 295 295 295 295 296 296 296 296 295 295 295 296 297 298 298 298 298 298 298 298 299 299 299 300 302 303 302 303 303 305 307 309 312 315 316 319 321 322 323 323 322 322 322 322 321 321 321 321 319 319 319 320 319 317 317 316 316 317 317 317 316 315 313 313 313 313 316
312 312 311 311 309 308 308 307 305 305 306 306 305 304 305 306 306 304 300 297 296 295 295 295 296 297 297 296 295 294 294 294 294 294 294 295 295 295 295 295 295 296 296 297 298 298 298 298 297 298 298 298 298 299 301 301 301 301 302 304 305 307 310 313 316 318 320 321 322 323 322 322 322 321 320 320 321 320 319 318 318 319 318 317 315 315 316 316 316 316 315 315 314 313 313 313 315
311 311 308 308 308 307 306 305 306 304 305 306 304 302 304 305 306 304 301 297 296 295 295 295 295 296 295 294 294 294 294 293 294 293 293 294 294 294 294 294 294 295 295 296 297 297 297 297 297 298 298 298 298 299 300 301 300 300 301 302 304 306 308 310 313 316 318 320 321 322 322 321 321 321 319 318 320 320 319 317 317 318 317 316 315 314 315 315 316 316 315 314 314 314 314 314 314
311 309 307 307 307 306 306 307 306 304 304 307 305 302 303 304 306 304 300 297 296 295 294 294 295 295 294 293 293 293 293 293 293 293 293 293 293 294 293 293 294 294 294 295 296 297 297 297 297 297 297 298 298 299 299 300 300 300 300 301 302 304 306 308 310 312 315 317 320 321 321 321 321 320 318 317 318 319 319 317 317 317 317 316 315 314 314 315 316 316 316 315 314 314 314 315 314
311 307 306 306 306 305 306 307 306 305 305 306 306 304 303 305 306 303 299 297 295 294 294 294 294 294 293 293 293 293 293 293 293 293 293 293 293 293 293 293 293 294 294 294 295 296 297 297 297 297 297 297 297 298 299 300 300 300 299 300 301 302 303 305 307 310 312 314 317 320 320 320 320 319 318 317 317 317 318 318 317 317 316 316 315 314 314 315 315 316 316 315 314 313 314 315 314
308 304 304 305 305 305 306 306 305 305 305 303 304 306 305 307 306 301 298 297 295 294 294 294 294 293 293 293 293 293 292 293 293 292 293 293 293 293 293 293 293 293 294 294 295 296 296 296 297 296 296 296 297 297 298 300 300 300 299 299 299 300 301 303 305 308 310 312 315 319 320 319 320 320 319 319 319 318 317 317 316 316 316 316 315 314 314 314 315 315 315 315 315 314 313 314 314
303 302 304 305 305 305 306 305 303 304 304 304 304 305 304 303 304 301 298 296 294 293 293 293 293 293 293 292 292 292 292 292 292 292 293 293 293 293 293 293 293 293 293 294 294 295 295 296 296 296 296 296 296 297 297 299 300 300 300 299 299 300 300 301 303 305 308 311 313 316 318 320 319 319 319 319 319 318 317 315 315 315 316 316 315 314 313 314 314 314 315 315 315 315 313 314 314
301 303 304 304 304 303 302 302 303 303 304 305 303 301 299 298 300 299 296 294 293 293 293 293 293 292 292 292 292 292 292 292 292 292 293 293 292 292 292 292 292 293 293 293 294 294 295 295 295 295 295 295 295 296 297 298 299 300 299 299 299 299 300 301 302 303 304 308 311 313 316 319 320 319 319 319 318 318 317 315 314 315 315 315 314 314 314 313 313 313 314 315 315 315 314 313 313
303 304 302 301 301 301 300 300 301 301 303 304 301 298 296 297 298 296 294 293 293 293 292 292 292 292 292 292 292 292 292 292 292 292 292 292 292 292 292 292 292 292 293 293 293 293 294 294 295 295 295 295 295 295 296 297 299 299 299 299 299 299 299 300 301 301 302 304 308 310 312 316 320 320 319 319 318 317 317 315 314 314 315 315 314 314 314 314 312 311 312 313 314 315 314 313 313
302 302 300 299 299 299 300 300 300 300 302 302 299 297 296 296 298 296 293 293 293 293 292 292 292 292 292 292 292 292 292 291 291 292 292 292 292 292 292 292 292 292 292 293 293 293 293 294 294 294 294 294 295 295 295 296 298 299 299 299 299 298 299 299 300 300 300 301 303 306 308 312 317 320 319 318 318 317 317 316 315 315 315 314 314 314 314 314 312 311 311 312 312 313 313 313 313
300 301 299 298 297 297 299 300 299 299 300 298 296 296 296 297 298 296 293 293 293 293 293 293 292 292 292 292 292 292 291 291 291 291 291 292 292 292 292 292 292 292 292 292 292 293 293 293 294 294 294 294 294 295 295 295 297 298 299 299 298 298 298 298 299 299 299 300 300 302 305 307 312 317 318 318 318 317 317 316 315 315 314 314 314 315 314 314 313 312 311 311 311 311 312 313 313
299 300 299 297 296 297 298 298 297 298 298 298 297 297 297 298 298 295 293 293 293 293 292 293 292 292 292 292 291 291 291 291 291 291 291 292 292 292 292 292 292 292 292 292 292 292 292 293 293 293 293 293 294 294 295 295 295 297 298 299 299 298 298 298 298 299 298 299 299 299 301 303 306 312 317 318 317 317 316 316 316 315 314 314 314 314 314 313 313 312 311 311 311 311 312 312 312
298 298 298 297 298 298 298 298 297 296 297 297 297 297 297 297 296 294 293 293 293 293 292 292 292 292 291 291 291 291 291 291 291 291 291 291 292 292 292 292 292 292 292 292 292 292 292 292 292 293 293 293 293 293 294 295 295 296 297 299 299 298 297 297 298 299 298 298 298 297 299 301 302 307 315 318 316 316 316 315 315 315 314 314 313 313 313 312 312 312 311 311 311 311 311 312 312
298 296 297 297 297 296 296 297 298 295 295 296 296 296 296 296 294 293 293 293 293 292 292 291 291 291 291 291 291 291 291 291 291 291 291 291 292 292 292 292 292 292 292 291 291 291 291 291 291 292 292 293 293 293 294 294 295 296 297 298 299 298 297 297 297 298 297 297 297 297 297 299 300 303 310 317 317 316 316 315 315 315 314 314 313 312 312 312 312 311 310 310 310 310 310 311 310
297 295 296 296 295 295 294 294 295 295 294 295 295 295 295 295 294 293 293 293 292 292 291 291 291 291 290 290 291 290 291 291 291 291 291 291 292 292 292 291 291 291 291 291 291 291 291 291 291 292 292 292 292 293 293 293 294 295 297 298 298 298 297 296 296 296 297 296 296 296 296 297 298 299 304 314 318 316 315 315 314 314 314 313 313 312 312 311 311 311 310 310 310 310 309 309 309
296 296 296 295 294 293 293 292 293 293 293 294 295 294 294 294 294 293 292 292 291 291 291 290 290 290 290 290 290 290 290 291 291 291 291 291 292 292 291 291 291 290 290 290 290 290 290 291 291 291 292 292 292 292 293 293 294 295 297 297 297 298 297 296 296 296 296 296 296 296 296 296 297 297 300 308 316 316 315 315 314 314 313 312 312 313 312 311 311 310 310 310 309 309 309 309 309
294 294 294 294 293 292 292 292 292 292 292 293 294 294 294 294 293 292 292 291 291 291 290 290 290 290 290 290 290 290 290 290 290 290 291 291 291 291 290 290 289 289 289 289 289 289 290 291 291 291 292 292 292 292 292 293 293 295 296 296 297 297 297 296 296 295 296 296 296 296 295 295 295 296 297 303 312 317 315 314 314 313 313 312 311 312 311 311 311 310 309 309 309 308 308 308 309
294 294 294 293 293 292 292 292 291 291 292 292 292 293 294 293 292 291 292 291 291 290 290 290 290 290 290 290 290 290 290 290 290 290 290 290 290 290 289 289 288 288 287 286 285 285 286 288 289 290 291 291 292 292 292 293 293 294 296 296 297 297 297 296 296 295 296 296 295 296 295 295 294 295 296 299 308 316 316 314 314 313 313 312 311 310 310 310 310 309 309 309 308 308 308 308 308
294 294 294 293 292 292 292 292 291 291 291 291 291 292 293 292 292 292 291 291 291 290 290 290 290 290 290 290 290 290 290 290 290 290 289 289 289 289 288 287 286 285 284 283 282 282 282 284 286 286 286 288 289 291 292 293 293 294 295 296 297 296 296 296 296 296 296 295 295 295 295 295 294 294 295 297 303 313 316 314 314 314 312 312 310 309 309 309 309 309 308 309 308 307 307 307 307
Wind_Speed
4 2 2 3 4 4 3 2 1 1 2 0 2 2 1 0 3 3 2 1 2 0 1 1 3 4 1 2 3 6 5 7 8 6 4 2 3 4 4 7 10 12 13 16 20 19 18 20 21 20 19 18 18 18 18 16 16 16 15 14 15 15 14 14 13 12 12 13 12 12 13 13 13 13 12 12 13 13 13 13 14 14 15 17 17 17 19 20 20 20 20 20 21 21 23 27 27
4 1 3 6 5 3 1 1 2 1 1 1 3 2 3 1 2 3 4 4 4 3 2 2 3 2 2 4 3 6 7 10 11 8 4 5 8 9 9 8 10 13 13 16 20 20 17 17 20 21 20 19 18 19 19 17 17 17 16 16 17 17 15 14 13 12 12 13 13 13 13 13 13 13 13 13 14 14 14 14 14 14 14 15 17 17 17 19 19 20 20 21 22 22 24 26 27
2 3 6 6 4 1 1 1 2 2 1 2 2 2 2 2 3 6 7 6 5 3 2 2 3 4 5 6 6 7 6 6 11 9 5 9 10 8 9 9 12 14 13 15 19 21 19 17 20 23 21 20 19 20 19 18 18 17 17 16 17 18 16 14 14 14 14 14 14 14 14 14 13 14 15 14 14 14 14 15 15 16 15 14 16 17 17 19 20 20 20 21 22 22 25 26 26
1 4 6 4 2 1 1 1 1 2 2 2 2 3 1 5 6 8 6 4 4 2 3 2 3 3 6 9 4 5 8 4 6 7 5 7 6 5 7 10 14 15 15 15 18 20 20 18 21 24 24 22 20 20 19 19 19 18 18 17 17 18 17 16 15 15 15 14 14 15 14 15 15 16 18 17 16 16 15 15 16 17 16 16 16 16 18 19 20 20 20 23 22 23 27 27 28
2 4 5 4 2 0 1 0 1 2 3 2 2 4 4 5 7 9 6 5 4 4 4 3 3 1 3 7 3 4 5 4 3 7 5 6 8 9 7 11 16 17 17 16 17 19 20 20 23 25 25 24 21 20 20 20 20 20 19 19 18 18 18 18 17 16 16 15 15 15 15 17 18 19 20 19 18 18 17 16 16 17 17 17 16 17 18 19 21 21 22 23 23 26 29 29 30
4 3 3 1 0 0 1 0 1 2 3 1 3 4 6 6 7 10 8 7 2 3 3 4 4 3 4 4 5 6 5 3 3 4 6 8 10 10 9 12 17 20 19 18 18 19 19 21 23 24 26 25 21 20 21 21 21 20 20 19 19 18 18 18 19 18 17 16 16 16 17 19 19 20 20 19 19 18 17 17 16 16 17 18 18 19 19 20 21 22 24 24 24 28 31 31 32
3 2 2 1 2 1 1 2 2 2 3 0 4 5 7 6 5 8 9 6 2 2 2 3 3 6 7 2 4 8 10 10 5 7 9 10 13 11 10 12 17 21 22 21 19 20 21 21 22 23 25 25 21 20 21 21 21 21 21 20 19 19 19 19 20 19 18 18 17 18 20 20 19 19 20 20 19 18 17 18 17 16 18 18 19 20 19 20 22 23 25 25 25 30 33 33 33
2 2 1 1 1 0 1 1 2 1 1 1 3 5 6 7 4 5 6 4 2 1 2 3 1 6 6 1 5 4 9 15 13 17 18 18 19 16 13 12 17 21 24 23 22 21 22 22 21 22 25 26 24 22 22 22 21 22 21 21 20 20 20 19 20 20 18 19 20 22 22 20 18 19 19 20 19 17 17 17 17 16 18 18 18 19 20 21 22 24 25 26 29 33 35 35 33
1 2 1 2 1 0 0 1 0 1 1 2 4 6 6 5 3 4 5 4 3 4 2 2 2 6 8 4 9 4 3 10 14 18 20 21 21 21 19 16 16 20 24 25 24 22 21 22 22 23 25 25 25 23 23 23 22 22 22 22 21 21 21 20 20 20 19 21 23 24 23 21 19 19 19 19 18 18 17 16 16 16 17 18 18 19 20 21 22 24 24 26 33 35 36 37 32
1 1 1 1 1 1 0 1 0 1 2 2 4 6 5 2 2 3 5 6 4 4 2 1 4 9 11 11 10 5 4 9 12 15 15 16 17 18 20 19 18 20 24 26 25 22 20 21 22 24 25 25 24 22 22 23 23 23 23 23 22 22 22 21 21 20 21 23 24 24 24 22 20 19 19 18 18 18 17 17 17 16 17 18 18 19 20 21 22 23 23 28 34 34 36 37 33
2 1 1 1 1 2 1 2 2 1 2 3 4 4 3 0 2 4 4 6 5 6 3 2 4 7 10 11 7 3 6 11 11 13 14 14 14 15 17 19 20 20 23 25 26 23 20 21 22 23 25 26 26 24 23 23 24 24 24 24 24 24 23 22 22 21 24 25 25 24 23 22 21 20 20 19 19 18 17 16 16 16 18 18 18 18 20 21 22 22 22 29 34 34 37 38 36
3 0 1 2 1 2 2 3 4 4 3 2 0 3 1 2 2 5 5 7 7 9 5 4 2 4 8 9 5 3 5 7 8 10 12 12 13 15 15 18 20 21 23 25 26 26 24 22 22 23 25 26 27 27 26 25 26 25 25 25 25 24 23 23 22 23 25 26 25 24 23 22 21 20 20 19 18 17 16 16 15 17 18 18 18 18 20 21 22 22 23 29 34 36 40 40 37
2 0 2 1 1 1 1 2 4 5 2 1 2 4 1 2 3 9 9 8 8 9 5 2 3 3 9 9 6 7 4 2 7 11 13 13 14 15 16 18 20 21 23 24 26 27 26 24 23 24 25 26 27 28 28 28 29 28 27 26 25 25 24 24 23 24 26 26 25 24 22 21 21 20 20 20 19 17 16 15 15 16 18 18 18 19 20 22 23 22 25 30 34 37 40 39 37
1 1 3 0 1 1 1 3 2 4 2 4 2 3 1 3 4 5 8 12 8 6 4 1 4 4 7 6 6 6 3 4 12 17 18 17 16 17 16 18 20 22 23 25 26 27 28 27 25 25 25 24 25 26 28 29 30 30 30 29 27 26 26 25 24 25 27 26 25 24 22 21 20 20 21 21 20 18 16 15 16 17 18 17 18 19 20 22 23 21 26 30 33 36 39 39 37
1 1 1 1 2 1 2 2 2 2 2 4 2 3 2 3 2 1 5 11 7 3 2 2 2 3 6 6 9 9 7 12 19 21 22 22 19 18 18 18 20 22 24 25 26 28 28 28 27 27 26 24 22 22 23 27 30 31 31 31 29 27 27 27 25 26 28 27 25 24 22 21 20 20 21 22 21 19 17 15 16 17 17 17 18 19 19 21 23 22 27 33 36 36 37 36 36
1 1 1 1 2 1 1 1 0 2 2 4 2 2 2 0 1 3 1 5 8 2 1 3 2 4 9 8 13 14 15 21 25 26 26 23 20 18 17 19 21 23 26 26 27 29 29 30 29 29 28 26 23 21 20 23 28 30 31 32 30 28 28 28 27 27 29 28 26 24 23 21 20 21 22 22 21 20 17 15 16 16 16 18 18 18 19 20 22 24 31 37 38 35 34 33 34
1 2 2 1 1 1 2 1 0 2 6 5 2 2 7 4 1 2 1 5 9 6 5 7 5 7 11 13 17 19 22 27 27 26 23 18 14 13 13 15 18 21 25 27 29 30 30 32 32 31 30 29 26 23 22 22 24 27 30 31 32 30 28 28 29 29 29 28 26 24 23 22 21 20 21 22 21 19 17 16 15 15 14 14 14 16 18 20 23 26 33 40 39 35 34 33 33
2 2 2 1 1 1 2 1 1 4 8 10 5 2 5 7 4 4 4 6 7 9 8 7 8 9 14 17 18 20 22 22 21 19 17 15 12 11 12 12 12 15 19 24 28 31 32 33 33 32 32 30 28 25 23 23 21 22 25 27 30 31 30 28 30 30 28 28 25 25 23 22 21 18 18 20 19 17 16 16 16 15 13 10 9 11 14 18 25 28 35 41 41 38 36 36 35
2 1 2 1 2 1 1 1 1 3 8 14 13 4 3 6 5 5 6 10 8 8 8 6 8 10 11 13 12 12 14 17 16 14 15 16 15 15 16 17 16 16 17 17 22 26 29 32 31 30 32 30 28 26 25 23 20 20 22 23 25 28 30 30 31 29 28 27 25 26 24 20 20 18 16 19 18 16 16 16 16 16 13 9 6 8 11 15 24 32 39 42 41 41 38 36 38
1 1 3 1 2 0 1 2 1 2 6 13 14 6 5 4 3 3 6 12 9 7 10 11 13 16 18 19 15 13 13 15 13 10 12 15 17 18 18 19 20 20 19 17 18 21 24 28 30 30 31 28 25 25 25 23 21 20 22 22 23 25 27 28 28 26 25 27 28 27 23 19 20 19 18 20 19 16 15 16 17 16 13 11 5 4 5 8 20 31 39 47 43 40 39 36 37
1 2 3 4 2 1 2 3 1 0 3 9 14 10 8 3 2 3 6 8 7 9 12 12 13 14 16 17 19 19 17 16 15 15 16 18 21 21 20 20 20 20 20 20 21 20 21 23 26 28 27 25 24 23 23 23 21 21 22 22 22 25 27 27 26 26 25 25 28 27 23 21 22 20 17 18 17 15 15 16 17 15 13 13 8 6 9 10 20 21 22 37 42 38 38 38 36
1 3 3 2 2 2 3 3 1 1 2 7 12 10 7 4 2 3 5 5 6 9 11 12 12 12 13 13 14 15 15 17 21 23 22 23 24 25 24 23 23 23 21 21 23 22 20 19 21 22 21 22 23 22 22 22 21 22 24 24 23 25 29 28 25 25 25 25 27 28 25 24 24 21 17 15 15 15 16 17 16 15 15 15 12 13 20 23 28 28 23 27 35 37 36 35 33
3 2 1 1 3 1 2 3 2 1 3 8 10 6 5 7 4 1 5 7 6 8 11 11 10 11 11 11 12 11 12 16 19 22 23 24 26 27 27 25 25 25 23 24 24 23 22 21 20 19 20 22 22 23 23 21 21 23 24 26 27 27 29 30 27 25 23 23 25 27 25 22 21 20 18 17 16 16 16 18 17 16 17 17 18 21 28 32 35 37 34 27 28 31 30 30 29
4 2 1 1 4 2 2 1 2 3 6 9 8 8 8 8 3 1 5 6 5 7 8 8 9 11 11 11 13 14 15 18 20 23 25 25 26 28 27 26 27 26 25 28 27 25 24 24 21 19 20 21 22 22 23 22 22 24 25 27 30 29 28 27 27 25 22 21 22 23 21 20 20 19 20 19 17 17 18 19 18 17 17 19 22 26 31 37 39 40 41 33 25 25 26 26 28
4 3 3 2 2 3 3 2 4 5 7 7 5 10 10 3 1 3 2 4 5 4 4 5 8 10 11 13 16 16 17 19 22 25 26 25 27 29 29 28 29 29 29 30 29 28 27 26 23 21 21 21 22 21 22 23 23 24 26 29 31 31 29 27 25 23 22 21 21 21 20 21 22 20 20 19 18 17 18 20 19 18 19 20 23 28 34 38 40 40 39 34 25 24 27 26 25
2 5 5 7 6 2 3 3 5 5 3 3 2 11 9 5 1 4 4 7 4 5 5 5 7 10 12 13 15 17 18 20 22 25 26 26 28 30 31 30 30 29 28 30 30 30 30 28 25 23 22 21 21 21 21 23 23 25 28 30 33 33 30 29 26 22 21 21 22 23 21 22 23 21 20 20 19 18 20 22 21 20 22 25 27 29 34 39 40 39 38 37 30 25 28 28 26
1 7 8 11 10 4 2 3 4 3 2 3 2 13 11 4 2 1 7 5 6 12 11 7 9 11 12 14 15 16 18 21 23 25 26 27 28 29 29 29 30 29 27 28 30 31 31 30 28 25 23 21 20 21 21 24 25 26 28 31 33 33 31 31 28 22 20 23 28 27 23 22 22 21 20 20 19 19 23 26 23 22 25 27 30 30 32 35 36 36 39 41 36 30 30 30 28
3 7 9 12 8 2 5 4 2 2 2 3 5 13 10 1 1 4 7 8 12 17 14 12 12 12 13 16 15 15 17 21 24 26 26 26 25 26 28 29 29 28 26 27 29 30 32 32 30 27 24 21 20 21 21 24 28 27 29 32 33 32 32 32 30 25 23 26 31 32 28 23 22 22 20 22 20 19 25 28 24 24 27 27 28 31 31 32 33 34 36 40 39 35 33 32 31
2 4 7 11 6 4 8 6 2 2 3 4 6 8 5 1 2 8 9 12 13 14 12 14 13 12 13 14 14 14 17 22 26 26 25 25 25 26 28 29 29 27 25 26 29 32 31 30 31 28 25 23 20 21 21 23 26 27 29 33 33 32 31 29 30 30 27 27 27 31 31 24 22 22 21 23 20 18 24 29 28 26 28 28 28 31 31 32 34 35 34 36 40 40 38 36 35
2 0 2 7 7 2 7 7 5 2 5 5 4 5 3 3 5 7 6 9 12 12 11 12 11 11 12 12 13 14 17 21 23 25 26 26 27 27 27 29 30 28 26 27 30 33 30 29 32 29 27 26 23 22 22 22 25 27 30 33 32 30 30 30 34 33 28 26 26 28 32 26 22 22 22 23 19 17 22 30 30 26 26 30 30 30 32 32 34 35 34 34 37 42 42 40 38
2 1 2 2 4 4 4 7 7 5 5 2 8 5 4 7 6 5 5 4 9 10 12 12 10 11 10 12 13 13 16 19 23 27 29 29 29 28 28 30 30 28 27 28 30 32 30 30 31 29 29 29 25 23 23 23 24 27 29 33 33 29 29 30 34 35 31 29 26 26 30 26 23 24 22 22 21 18 21 28 28 22 25 32 30 30 33 31 33 36 36 34 33 37 41 39 38
1 2 2 3 3 8 9 6 8 8 2 5 8 4 5 6 7 12 11 5 5 7 13 12 12 12 12 12 12 12 14 19 24 28 30 30 30 30 29 29 29 28 27 27 29 31 31 32 31 30 32 31 28 25 24 23 24 26 27 32 35 35 34 32 31 31 32 31 29 28 28 26 25 25 25 23 22 21 21 23 24 20 26 32 28 28 30 27 32 35 36 38 34 32 37 38 37
2 3 4 6 6 9 9 2 7 10 8 5 4 4 6 6 9 15 13 8 7 12 13 12 13 13 12 11 11 12 13 17 22 27 31 30 30 31 30 29 28 27 26 26 28 30 31 32 31 31 31 31 30 28 26 24 23 25 26 29 33 35 36 37 35 31 29 28 31 32 27 26 25 25 29 26 21 22 20 19 23 23 30 35 28 27 28 26 32 32 32 39 38 34 36 38 37
3 5 5 6 7 8 9 3 4 10 9 6 3 2 5 9 12 14 11 8 12 14 12 13 13 12 12 11 11 12 13 15 17 23 28 28 28 30 30 29 28 27 27 28 28 28 29 29 29 31 30 29 30 30 28 25 23 24 24 26 30 34 35 35 37 37 34 31 31 31 28 26 24 27 30 26 22 23 20 19 24 25 32 37 31 28 26 25 31 32 30 36 38 37 37 38 38
7 7 7 6 6 7 11 9 5 11 10 9 7 1 5 11 11 12 10 12 15 14 12 12 13 12 12 11 12 12 14 15 15 20 25 26 27 29 30 29 28 28 29 30 31 29 29 28 28 29 31 30 30 29 29 27 24 23 24 25 27 33 38 38 37 38 39 37 33 30 30 27 26 29 29 25 24 23 21 23 24 25 33 38 34 32 29 26 32 33 31 34 35 36 39 40 39
8 8 7 7 8 6 9 12 7 11 13 9 7 7 9 11 10 10 12 15 14 13 12 11 11 11 11 11 11 12 14 14 16 20 23 24 26 27 29 29 27 27 28 31 32 31 31 30 29 29 29 30 29 28 28 28 27 25 25 25 26 27 32 37 40 39 38 40 39 35 33 30 29 31 27 24 26 24 24 28 26 26 34 41 40 38 36 36 38 36 34 37 35 31 36 40 39
6 7 6 8 10 6 8 12 6 10 13 9 9 14 10 9 11 9 13 14 14 13 12 11 10 9 9 10 11 13 13 13 17 21 22 23 24 25 27 27 27 28 28 30 32 33 33 32 30 30 29 28 28 27 27 27 27 26 25 26 26 26 27 30 37 39 38 40 41 39 36 34 32 34 31 27 28 26 26 30 30 29 31 36 40 40 39 41 43 40 36 39 38 33 34 39 41
5 5 7 8 8 8 11 11 5 9 11 10 14 17 9 8 11 9 15 15 14 12 11 11 10 10 9 10 12 13 13 13 16 20 23 25 25 27 27 26 27 28 28 29 31 33 34 32 31 31 30 28 27 26 27 26 26 26 27 27 28 28 29 30 32 36 37 38 39 39 40 40 36 37 38 33 29 25 26 32 34 33 31 29 34 39 40 41 43 42 38 37 37 37 36 39 45
4 4 6 7 6 10 9 5 2 9 8 11 16 15 9 8 6 12 15 14 13 11 11 10 10 11 10 11 13 15 16 16 18 20 23 27 27 28 28 27 26 26 25 25 26 28 29 29 30 31 31 29 27 26 27 27 27 29 29 28 28 29 31 33 32 33 36 38 40 40 41 44 44 43 44 40 34 29 29 35 38 39 36 32 34 40 41 42 42 42 43 39 34 34 33 38 45
2 4 4 6 7 9 5 1 7 10 6 8 13 13 9 2 7 13 13 11 12 11 11 10 10 11 12 12 13 17 19 19 20 20 22 27 29 28 28 27 26 25 24 23 23 24 25 26 28 29 29 28 27 27 27 28 29 30 30 30 28 27 30 33 33 32 35 39 41 42 41 45 49 47 46 44 41 38 34 36 41 42 41 39 40 42 42 44 43 42 44 42 36 32 30 34 38
1 2 2 6 8 8 8 10 15 12 4 4 12 12 4 5 8 8 8 9 10 11 13 14 12 11 12 13 15 17 18 18 20 20 21 24 28 29 29 29 28 26 25 24 23 22 22 25 28 28 27 26 26 27 27 27 29 30 31 32 31 28 27 28 28 28 31 35 37 40 40 44 50 46 42 43 44 43 37 37 42 44 44 43 41 43 46 46 44 43 42 42 42 38 34 33 30
1 2 1 6 9 10 12 13 14 11 4 6 12 10 2 5 6 9 7 7 10 12 15 15 14 13 13 14 15 17 18 18 18 20 21 24 29 31 32 34 33 30 30 28 25 24 23 23 26 28 27 25 24 24 25 25 26 27 28 28 28 27 25 25 25 26 28 31 35 40 39 42 48 47 43 43 43 41 35 36 42 45 48 47 43 44 47 46 45 45 42 42 43 41 39 34 27
3 1 2 6 8 10 13 13 9 9 9 5 8 6 7 5 3 10 8 8 10 11 13 13 12 12 13 14 15 17 19 19 20 22 24 27 31 33 34 35 34 33 33 32 28 27 26 24 25 27 26 25 23 23 23 23 22 24 25 23 24 25 25 27 29 30 32 32 33 38 39 39 43 47 49 47 44 40 33 34 42 44 48 51 46 42 43 46 48 48 46 45 41 40 40 34 29
2 1 3 6 9 11 12 11 7 7 10 7 2 6 8 7 2 9 7 7 9 12 13 13 13 14 16 17 18 20 20 20 20 22 25 28 32 34 35 36 36 35 35 33 31 29 28 26 25 26 27 26 25 24 22 21 19 21 23 23 23 24 25 28 31 32 35 35 33 35 38 38 39 43 49 49 47 45 35 33 39 41 46 51 48 43 43 46 48 47 46 45 41 40 40 36 34
2 4 4 6 7 10 10 9 9 7 6 7 4 4 5 6 2 7 6 7 10 13 13 14 14 16 18 19 20 21 21 22 22 23 25 27 32 36 37 38 38 37 36 34 33 31 29 28 27 27 29 29 28 26 23 21 19 19 20 21 22 23 25 28 29 31 34 34 33 34 36 39 41 43 47 47 46 45 39 36 38 38 43 49 48 45 46 47 48 48 46 45 43 43 41 37 38
4 5 5 6 7 9 8 7 8 6 4 8 4 2 3 6 2 1 4 6 8 10 11 12 14 16 18 20 22 23 22 21 22 23 25 30 35 37 38 39 39 39 38 36 35 34 32 31 30 29 31 31 30 28 25 22 20 18 17 19 21 22 24 26 27 30 32 31 31 34 34 37 40 42 45 46 46 46 42 41 41 39 42 47 46 45 48 48 48 48 48 48 47 45 41 36 38
5 4 4 7 7 8 7 5 4 3 4 5 1 4 3 5 2 1 4 4 6 8 10 12 15 18 20 21 22 22 21 19 20 21 25 32 37 38 38 38 39 40 40 38 38 37 36 33 32 32 32 32 31 30 28 24 21 19 18 18 19 21 22 24 25 28 32 32 30 33 34 35 39 40 41 43 45 47 46 44 45 42 42 47 47 47 51 51 47 48 48 48 47 46 44 38 37
3 3 7 8 6 5 5 3 1 2 3 2 6 3 4 7 1 5 5 5 7 9 11 14 18 21 21 20 20 20 19 19 21 21 22 28 31 34 37 38 40 41 40 39 39 40 39 36 35 35 35 34 32 32 30 27 22 20 19 18 18 19 19 20 22 24 29 32 31 33 35 32 36 41 41 41 42 46 48 46 47 44 41 47 49 44 50 55 50 48 48 46 46 46 46 41 37
3 5 6 6 6 5 4 3 2 5 4 6 5 4 6 9 2 7 7 6 8 10 12 15 18 20 20 19 19 18 17 20 22 20 21 22 23 28 33 36 39 40 40 40 41 42 41 38 36 37 38 37 34 32 32 30 25 21 21 19 17 18 18 17 19 21 24 29 32 33 35 34 31 36 42 44 46 48 47 45 49 47 42 48 50 41 46 55 54 51 49 47 47 46 46 45 42
5 3 3 4 5 6 7 6 5 6 4 5 2 4 6 9 2 8 6 6 7 11 13 13 14 17 18 19 19 18 18 21 20 20 21 20 22 29 34 37 38 39 42 42 42 42 42 40 38 37 39 40 36 33 32 32 29 25 22 19 16 17 17 17 17 18 22 26 31 34 35 37 34 31 39 44 47 49 47 44 49 49 44 48 51 48 50 54 54 53 50 48 49 48 47 46 43
4 3 1 2 2 5 7 5 5 8 9 6 4 3 4 5 3 9 4 4 7 12 13 12 13 16 18 18 18 19 20 21 20 21 22 23 28 34 35 38 41 42 44 44 42 42 42 42 40 39 41 42 39 37 33 32 32 28 23 20 17 17 18 18 16 17 20 23 28 34 36 36 38 33 35 42 42 45 47 46 49 50 47 49 52 52 52 52 52 52 48 48 50 49 48 46 42
3 2 2 3 1 4 5 3 1 5 11 8 4 4 3 1 7 8 2 7 12 14 13 14 16 18 19 18 18 19 19 21 21 22 23 26 32 37 39 41 43 45 46 45 44 42 43 44 44 43 42 41 40 39 35 33 32 29 26 23 20 20 21 19 17 17 19 24 27 31 36 36 39 39 34 44 44 43 47 47 48 50 50 51 50 50 52 53 51 50 49 48 48 46 48 47 43
2 1 2 0 2 1 4 3 1 2 8 7 3 5 4 1 6 5 4 11 15 14 14 17 19 21 21 19 19 19 21 22 23 23 24 25 29 36 43 45 45 46 47 48 47 45 45 46 45 44 42 41 40 40 37 35 33 30 28 25 23 22 23 20 18 19 21 27 29 30 35 37 37 40 33 40 49 46 49 50 48 50 51 49 49 49 51 53 49 48 50 48 46 46 46 47 44
1 2 1 2 3 3 1 2 2 4 8 6 6 9 8 4 1 2 6 14 15 16 18 21 23 24 23 21 22 23 24 25 26 26 26 26 29 37 44 46 47 47 47 49 49 48 46 45 44 42 41 41 40 40 39 36 33 31 29 28 25 25 27 24 21 22 23 26 30 30 34 37 36 39 37 31 45 46 47 52 49 48 48 47 48 50 49 50 48 44 47 47 47 48 46 45 44
1 1 1 1 2 2 3 1 2 6 7 7 9 10 8 5 1 3 10 15 16 19 22 24 25 24 23 23 24 26 27 26 26 25 24 24 30 40 46 47 48 49 49 49 48 47 46 44 43 41 41 41 41 41 38 36 34 30 29 31 29 27 30 27 22 22 23 24 28 31 33 37 38 38 40 31 38 47 45 49 50 47 49 47 48 50 48 49 48 44 44 45 46 48 47 45 44
2 1 2 0 1 2 2 0 1 5 7 7 9 10 5 1 2 6 12 14 16 20 21 22 24 24 23 22 23 24 26 26 25 25 26 27 32 42 47 46 47 48 47 46 45 45 44 42 41 40 39 40 39 40 38 36 34 30 29 33 31 29 32 29 23 22 22 23 26 29 32 35 38 37 39 37 32 48 47 47 49 47 49 49 48 48 48 49 49 45 45 45 45 47 47 45 45
3 4 4 2 1 2 2 1 2 3 6 5 7 9 5 3 3 7 11 12 15 20 21 20 21 23 24 23 23 24 25 26 26 25 27 28 32 42 47 45 45 44 43 44 46 46 46 44 43 42 42 41 38 38 38 36 35 31 29 30 31 31 33 30 25 21 20 22 25 27 31 34 38 38 36 40 32 43 50 47 49 47 46 49 48 47 47 49 49 48 49 48 46 47 47 45 45
5 5 5 4 4 2 3 4 2 2 4 4 5 11 8 1 1 4 7 12 16 19 21 20 20 24 25 24 25 27 27 27 27 27 28 26 28 38 43 42 42 41 40 42 41 41 42 41 39 41 43 43 41 39 37 35 35 33 29 28 30 33 34 30 25 22 20 21 23 27 29 32 37 39 36 39 37 37 52 49 48 48 45 47 49 49 49 48 48 50 50 48 47 48 47 44 43
Wind_Direction
317 306 173 173 157 168 181 223 235 148 247 50 55 348 105 86 305 285 250 214 293 181 212 276 151 151 190 305 296 308 292 262 270 271 302 56 186 247 244 219 207 213 215 212 216 212 205 210 208 202 203 207 209 212 218 220 220 217 216 220 220 222 226 232 232 232 238 239 240 238 240 240 241 243 241 244 246 243 239 248 257 255 251 247 248 246 242 240 236 233 227 225 228 221 208 202 192
300 258 143 150 156 196 171 245 270 68 247 81 77 2 49 147 258 318 349 350 341 38 8 259 198 220 294 322 293 287 263 234 249 270 299 288 279 282 269 237 214 213 214 213 214 213 209 211 213 209 205 209 212 214 218 218 220 220 221 225 224 224 228 234 232 232 236 238 242 242 245 244 244 241 240 244 242 240 238 244 252 253 254 251 247 246 245 242 238 234 227 225 228 220 207 197 189
300 155 145 152 156 226 175 213 291 11 337 39 58 68 49 308 330 346 351 345 345 13 325 231 230 251 238 252 250 266 271 232 243 258 275 276 284 292 275 244 218 210 212 214 212 213 212 213 215 212 209 211 215 216 218 217 218 220 223 228 231 231 233 234 232 233 234 237 240 242 245 247 245 241 245 244 236 237 238 240 246 247 251 253 250 246 245 244 239 234 229 227 224 214 203 193 186
316 153 159 185 192 214 226 229 350 336 5 24 14 74 21 319 335 329 336 332 325 282 252 214 228 213 230 261 278 272 270 266 240 239 267 270 260 280 271 233 215 207 212 212 209 214 214 217 219 214 211 212 216 219 219 220 219 220 224 228 234 235 235 234 233 234 235 236 237 240 242 245 243 238 241 239 231 231 233 236 244 248 247 251 254 248 244 244 241 233 231 228 221 211 200 191 185
100 142 172 232 252 67 271 230 48 314 19 11 325 38 360 327 322 316 321 317 300 237 226 222 258 152 240 274 293 282 276 292 254 225 257 284 267 273 262 227 217 211 214 212 209 214 217 223 223 217 213 213 216 220 219 220 221 222 225 228 234 235 235 234 232 234 236 236 237 240 240 240 238 235 239 240 237 234 232 231 237 246 247 250 252 249 243 242 241 234 233 228 220 209 194 187 184
109 114 138 213 52 359 267 359 360 4 44 353 320 3 355 344 324 319 314 318 322 215 223 235 288 307 265 251 221 249 279 315 334 239 244 282 284 280 266 234 221 219 220 218 216 218 223 229 227 220 216 216 218 222 221 221 223 224 227 229 234 234 236 235 232 234 236 236 238 242 241 241 240 239 243 244 241 239 237 231 232 240 246 251 251 251 245 241 238 234 232 226 217 203 189 185 183
172 166 122 116 115 240 284 10 343 21 74 74 328 344 347 353 333 318 317 335 68 159 202 241 314 298 276 265 242 241 243 254 276 278 265 281 292 291 277 247 229 226 227 226 225 224 228 233 229 222 219 219 220 224 224 225 226 226 228 231 233 234 236 237 234 234 235 235 238 241 241 243 244 244 245 244 242 239 239 234 232 238 245 252 254 252 246 242 235 234 234 224 210 196 188 185 181
225 256 215 248 144 74 308 357 327 3 83 214 300 297 316 337 325 302 316 337 334 288 215 233 260 274 283 144 266 247 232 252 261 273 276 278 283 288 286 264 242 234 234 233 232 230 230 232 228 224 221 221 223 225 226 227 229 230 231 233 235 236 236 238 236 236 236 235 237 240 244 248 248 249 247 245 243 240 240 236 234 238 245 249 254 254 247 244 233 232 234 218 201 190 186 182 179
285 289 234 247 176 69 295 281 288 311 255 233 267 260 279 310 291 274 297 305 299 298 259 245 201 259 300 287 274 285 230 269 276 279 280 280 281 281 280 273 256 242 241 239 236 237 234 232 228 226 225 224 226 227 228 229 231 233 234 235 236 237 237 238 238 237 236 235 237 240 246 251 251 252 249 245 243 242 244 241 240 241 246 249 253 254 248 245 233 232 233 211 195 189 186 181 179
257 344 257 218 199 274 232 240 165 208 262 280 279 268 274 293 269 255 282 310 320 299 312 44 228 251 290 295 289 295 284 299 298 293 291 289 288 283 277 271 263 250 248 245 241 242 239 236 230 228 229 228 229 229 230 230 232 235 236 237 239 239 238 238 237 237 236 236 239 243 247 251 253 253 248 245 243 243 246 245 246 247 250 251 254 255 247 243 235 233 230 209 197 192 188 181 177
252 56 316 242 245 309 348 317 314 320 312 310 270 260 293 278 251 253 252 300 316 288 269 164 256 266 281 288 287 276 287 303 303 299 301 296 291 287 278 268 263 254 250 249 247 246 246 244 236 232 232 232 232 232 232 230 231 235 237 239 241 241 239 238 238 237 237 238 241 244 248 251 254 252 246 244 245 245 247 247 248 250 254 254 255 256 244 236 233 235 229 211 200 193 188 182 178
272 37 254 262 353 338 358 314 312 321 307 299 160 114 38 169 240 314 320 311 312 296 272 205 284 327 290 290 294 291 296 306 313 313 314 307 294 287 278 268 262 255 251 249 249 249 249 250 247 241 237 237 237 237 236 233 231 232 235 238 241 241 239 239 239 238 239 241 243 244 246 250 254 251 243 242 245 245 246 248 248 250 256 257 256 257 246 231 229 233 227 214 203 194 187 180 174
297 327 261 271 49 316 26 299 307 319 305 100 45 87 119 224 313 332 330 314 296 296 310 223 283 309 280 291 299 298 313 354 343 336 333 321 304 292 278 268 262 255 250 248 247 247 248 250 251 251 246 242 240 241 240 237 234 232 233 235 239 239 238 239 239 239 240 242 244 245 246 250 255 252 244 240 242 243 243 245 247 250 255 258 259 261 253 234 227 228 223 214 204 191 179 171 165
306 253 285 300 100 274 218 276 313 321 353 81 51 105 152 283 337 343 319 315 309 310 347 316 282 275 274 298 303 314 16 6 334 330 328 322 311 298 283 269 263 257 252 248 245 245 246 248 249 252 252 248 244 242 243 241 238 234 233 233 236 238 237 237 238 238 240 243 244 246 247 249 253 253 246 241 243 243 241 242 245 249 253 259 261 260 256 240 229 226 219 206 191 178 166 163 162
318 209 287 166 147 228 200 268 349 309 2 57 55 120 189 261 304 310 302 312 324 9 332 269 224 274 319 329 307 326 352 327 322 321 319 317 312 301 288 275 267 261 256 251 246 244 244 247 249 250 251 251 247 244 243 243 241 237 235 234 234 237 238 236 237 237 239 243 245 246 248 250 250 249 246 242 243 243 240 242 243 249 256 260 259 257 254 243 230 219 207 189 177 171 165 167 168
318 226 245 199 175 230 175 199 264 266 345 25 99 135 298 262 177 281 340 303 300 331 254 267 196 266 306 297 292 312 318 311 312 314 314 311 308 301 290 280 272 266 261 256 251 248 246 246 247 250 250 250 247 246 245 244 243 238 235 235 233 234 237 236 235 237 239 243 246 247 251 251 249 246 243 241 240 240 242 243 243 248 257 260 261 255 247 239 226 211 199 185 178 174 169 170 168
288 241 240 226 188 210 160 188 274 327 332 342 131 129 329 350 128 281 272 244 271 290 271 264 244 246 271 275 288 299 300 304 308 311 311 306 303 298 287 280 274 270 267 264 258 253 251 249 248 249 249 249 247 245 245 243 243 240 236 235 233 233 236 237 235 236 239 243 245 248 251 250 247 243 239 239 238 240 242 242 242 244 253 262 269 262 247 232 218 205 197 190 183 176 171 169 165
270 230 253 249 171 123 149 174 33 327 323 326 326 53 346 337 352 339 294 251 256 288 293 266 252 245 251 260 276 292 300 306 311 312 308 303 302 300 299 296 283 277 276 273 269 263 257 255 252 250 250 250 247 245 245 243 242 240 238 236 233 233 235 236 233 234 237 239 243 245 246 245 243 238 234 236 235 237 239 240 239 238 245 249 262 266 252 231 214 202 194 189 183 176 171 168 166
271 224 274 253 123 79 121 105 66 321 323 318 319 11 5 335 349 345 316 307 299 304 333 347 330 329 311 292 279 292 310 311 311 312 309 308 313 319 321 321 316 307 299 288 282 277 269 263 259 254 252 250 247 246 245 242 240 239 237 235 233 233 234 233 231 232 234 236 239 241 240 238 237 233 231 232 232 233 236 239 232 231 236 223 237 253 247 239 216 204 194 184 177 170 165 161 162
271 242 275 72 99 74 202 224 216 315 318 307 313 338 333 354 24 317 307 311 320 1 10 7 353 350 344 334 324 322 321 311 309 312 317 325 335 338 334 331 329 323 320 310 299 289 281 275 268 263 257 252 246 244 245 241 237 236 235 232 230 231 230 229 228 228 231 233 236 237 234 231 233 231 231 234 233 231 233 234 221 222 224 199 194 219 232 238 207 201 189 174 166 160 155 154 157
153 236 301 75 113 288 148 200 268 328 287 297 303 308 317 7 107 280 300 313 350 23 10 3 349 340 335 330 326 328 328 328 346 359 1 3 0 357 351 345 338 330 326 317 310 301 291 283 275 270 263 256 249 243 243 241 237 236 234 230 227 227 226 225 225 224 226 230 232 232 229 230 233 230 229 232 229 226 227 220 207 208 202 184 180 140 109 128 163 167 157 149 147 148 149 153 156
213 229 302 81 157 320 103 131 75 135 260 290 293 304 330 328 255 270 294 315 359 7 1 357 342 331 326 318 312 316 327 346 6 14 16 17 12 9 5 360 356 349 341 329 323 317 306 294 281 273 265 259 254 247 245 245 242 237 234 231 226 225 225 222 221 222 223 227 228 227 226 230 233 228 224 223 219 221 220 210 201 197 190 180 172 139 120 122 132 131 116 117 130 139 146 151 154
270 223 257 199 183 282 83 115 137 172 295 285 289 324 338 296 291 315 286 282 311 342 357 352 334 321 312 304 305 319 349 8 19 21 21 20 16 12 8 4 2 357 351 344 337 329 320 310 297 281 269 262 257 252 248 248 246 241 236 232 227 224 224 222 220 219 219 222 224 224 224 226 226 223 221 218 214 216 213 204 199 194 191 183 164 142 133 129 128 133 133 128 135 142 147 151 152
255 255 277 229 164 220 273 135 186 231 266 271 298 323 299 289 310 317 280 282 314 345 359 343 321 321 320 321 333 356 21 28 29 26 24 22 17 13 11 9 6 3 358 354 349 341 332 323 312 293 279 269 261 257 250 248 249 245 239 234 230 226 222 221 220 218 218 218 219 219 218 219 219 218 219 217 213 211 209 203 197 193 190 182 164 148 143 138 135 138 135 134 143 147 151 154 153
215 275 321 304 178 194 245 250 254 240 250 268 304 303 295 336 346 250 289 28 33 2 346 331 323 333 340 347 2 24 37 35 31 26 23 19 15 13 12 11 8 8 5 360 356 352 345 336 324 306 293 280 270 264 254 250 250 248 243 238 234 230 224 221 221 220 218 217 216 215 213 215 218 220 217 212 209 205 201 199 193 192 190 182 168 154 149 142 139 139 132 134 148 155 158 159 159
196 292 314 301 295 293 256 246 237 224 247 258 291 299 309 58 248 217 87 56 34 323 336 354 348 353 358 13 32 42 42 36 31 26 24 20 16 14 11 8 5 5 4 2 2 358 352 345 335 320 306 291 280 271 262 254 249 249 248 242 238 235 229 225 224 223 219 216 214 213 212 215 218 219 215 208 206 199 195 198 192 189 191 185 176 162 153 146 143 141 136 140 151 163 167 163 163
350 300 305 288 288 304 243 169 169 179 202 203 281 309 317 37 289 133 80 37 355 341 354 21 15 16 29 46 51 46 43 38 31 27 24 21 17 13 10 7 3 360 360 2 2 357 354 352 345 334 320 303 289 280 272 261 253 250 249 247 243 239 234 229 226 223 220 219 218 215 212 214 217 218 213 207 205 198 197 200 193 185 185 180 175 170 162 157 152 147 144 144 150 164 171 166 166
335 312 307 285 275 190 163 129 133 158 141 207 266 305 314 12 300 67 47 3 357 346 358 33 38 45 57 60 54 46 44 37 31 27 23 19 15 10 8 8 2 357 358 358 357 356 358 357 351 344 334 320 301 289 282 271 263 255 251 251 248 243 238 234 230 225 222 222 220 217 214 213 216 217 212 206 205 200 197 197 194 185 180 176 173 174 171 166 161 155 151 150 153 162 169 169 171
315 324 307 300 311 153 144 90 44 140 124 203 242 295 316 109 37 51 25 357 349 340 11 50 59 65 64 59 54 49 42 35 31 26 20 15 10 7 6 6 2 358 356 353 354 357 358 357 353 348 342 331 315 300 289 281 272 263 257 253 249 246 240 234 231 228 226 225 221 218 216 214 215 218 213 208 206 201 196 195 194 188 182 178 176 178 175 167 164 161 158 156 157 162 168 171 173
283 339 274 315 340 155 134 82 22 50 143 192 277 318 346 5 43 58 17 350 337 344 43 71 73 67 61 58 55 50 40 34 29 23 18 13 9 6 3 2 1 358 355 353 353 354 354 355 356 351 346 337 325 311 297 291 282 270 262 254 249 246 239 233 233 231 227 225 223 220 218 214 214 216 213 208 208 206 196 194 193 188 183 181 177 178 175 169 166 165 163 160 158 163 167 170 170
288 265 186 360 353 313 23 61 36 48 155 253 338 333 327 340 8 11 346 342 328 358 71 84 69 65 60 56 52 47 40 33 28 22 16 12 9 4 0 359 358 356 354 355 353 352 350 352 355 351 348 345 335 323 309 300 294 283 269 256 249 248 245 237 233 232 230 227 224 222 218 215 214 214 212 206 208 212 198 192 192 185 183 180 175 175 173 170 169 168 168 165 159 161 164 166 167
323 335 309 13 356 311 340 55 69 44 9 342 356 337 321 325 335 337 337 335 333 42 83 77 64 65 58 54 49 41 35 29 24 19 14 10 7 3 359 356 354 353 351 352 351 351 350 350 351 350 350 348 341 334 323 309 302 296 283 265 252 246 246 244 237 231 229 228 227 225 218 213 213 212 210 205 207 213 203 193 188 183 183 178 173 173 172 169 169 170 172 171 164 160 161 163 165
48 18 333 335 334 315 327 71 89 33 357 359 16 332 317 304 317 325 328 351 45 81 81 68 67 64 55 53 45 36 30 25 20 16 12 7 5 1 358 354 351 350 348 349 349 349 350 348 348 348 348 346 341 338 333 322 311 304 293 277 260 246 240 240 240 237 232 229 228 228 221 212 209 211 211 205 204 209 205 197 190 186 184 180 174 173 171 171 172 170 171 173 169 163 160 160 162
344 354 329 313 315 309 315 319 71 25 354 325 309 277 304 305 313 318 332 30 78 89 73 67 68 60 57 48 37 35 28 23 18 13 10 5 3 0 357 354 350 349 349 349 349 348 348 347 347 346 344 344 342 339 336 330 320 312 301 288 273 257 245 239 238 238 237 236 232 227 222 214 209 210 211 205 203 207 203 198 196 190 185 182 177 172 170 172 175 173 169 171 170 166 162 160 161
312 322 318 306 306 292 300 307 357 8 342 314 311 311 325 315 314 331 11 66 86 83 73 71 65 56 52 40 34 34 23 20 15 8 6 3 2 0 357 355 351 350 350 348 349 348 347 346 346 346 345 344 342 339 338 337 330 320 311 301 289 270 255 243 236 234 234 236 235 228 222 218 214 211 209 205 202 202 201 198 197 191 187 185 178 171 171 173 175 174 169 168 168 167 165 162 160
301 305 299 295 303 286 288 302 337 358 335 322 334 335 332 324 330 8 56 77 74 72 74 69 61 55 44 36 34 25 18 16 9 3 2 1 0 359 357 355 352 350 350 348 348 348 348 347 345 346 346 344 342 341 341 340 336 330 320 310 300 285 264 246 237 234 231 231 232 230 224 218 216 210 206 205 201 198 199 199 197 192 188 186 179 173 174 178 178 176 171 168 166 164 165 162 160
287 294 287 292 303 293 294 302 332 10 339 326 335 329 332 334 344 40 83 74 62 64 69 66 58 52 42 39 32 20 16 8 359 358 358 357 357 357 356 353 350 349 351 351 350 348 346 345 344 344 344 344 343 342 341 338 335 331 325 315 305 297 283 258 242 236 231 228 228 227 224 219 216 211 207 205 200 198 200 197 195 192 187 184 181 177 176 180 181 178 173 169 166 163 161 161 160
282 299 303 303 306 304 299 289 317 13 342 320 329 329 338 337 340 68 88 69 65 62 62 64 50 44 40 35 27 14 8 359 354 354 353 353 353 354 354 351 348 346 346 349 350 348 345 343 343 341 342 343 343 342 339 335 332 328 322 314 307 300 291 277 257 242 234 231 229 226 223 220 216 212 211 206 197 196 198 195 195 192 189 185 182 179 178 178 179 177 172 169 168 165 161 160 161
302 318 307 303 320 320 299 238 355 359 329 318 331 327 324 329 2 90 88 75 77 67 65 65 44 41 34 25 18 5 359 355 353 352 351 350 348 348 349 346 344 341 337 340 343 343 342 341 338 338 339 340 341 341 338 333 330 326 320 313 309 301 293 289 277 258 243 234 232 229 224 220 217 216 214 208 198 196 199 197 196 195 193 189 182 179 178 176 177 177 174 171 168 164 163 162 163
333 346 315 307 336 335 310 241 331 323 289 309 326 312 302 328 90 89 84 86 82 67 65 60 46 44 32 20 11 1 357 353 351 351 349 347 344 343 343 341 338 335 331 333 335 336 336 336 334 333 334 335 337 338 336 334 331 329 326 320 316 307 297 293 287 273 252 238 233 231 226 221 220 218 214 209 202 200 200 198 197 196 193 190 185 180 176 175 176 178 176 173 168 161 163 166 168
46 52 345 320 326 319 298 303 318 314 276 346 339 317 297 120 118 110 101 89 70 49 44 41 40 39 26 14 6 0 357 351 349 348 346 345 343 342 341 339 336 332 330 329 328 330 329 330 331 329 328 328 331 334 335 335 334 334 334 330 328 321 311 301 291 280 261 242 234 232 228 223 220 216 210 206 204 203 201 199 197 195 193 191 187 182 178 177 177 177 178 175 172 167 164 168 171
288 111 357 311 305 304 303 311 325 319 295 48 15 332 283 97 110 137 124 73 52 36 31 29 27 26 15 7 2 358 355 351 350 348 346 345 344 343 342 342 338 333 330 326 322 323 323 324 326 326 324 321 322 328 332 333 333 335 336 334 330 323 315 307 297 291 277 255 239 234 232 225 218 214 209 205 203 202 199 197 197 195 193 190 188 185 181 179 179 179 181 178 177 174 166 165 172
286 113 313 297 296 304 309 317 329 309 296 8 25 306 269 318 79 132 116 74 55 34 30 26 19 15 7 3 0 357 354 353 350 348 347 346 344 343 341 340 338 332 328 324 319 317 318 319 320 320 319 316 315 319 325 329 330 333 334 330 326 321 314 308 302 297 292 279 254 237 232 228 219 211 209 206 201 200 198 198 198 196 193 191 190 188 183 182 182 181 183 182 181 177 169 167 171
289 16 308 297 303 307 310 315 304 284 300 311 259 234 266 301 118 130 110 68 41 24 23 18 11 7 2 0 359 356 354 352 350 348 346 344 341 338 336 334 332 329 326 323 317 312 311 313 314 315 315 314 314 315 319 323 324 327 329 326 325 323 317 312 308 300 295 293 276 247 230 225 222 212 208 206 201 200 198 196 197 195 192 191 192 190 185 184 184 183 184 184 182 180 176 172 172
334 345 291 275 292 297 297 298 288 289 316 302 255 207 258 282 149 123 96 49 21 14 12 8 6 3 359 356 355 354 353 352 350 345 341 338 335 332 331 329 327 326 325 321 315 308 306 307 309 311 312 314 314 314 314 314 315 316 320 322 321 322 320 317 315 307 297 295 286 262 235 222 222 216 210 209 206 203 201 198 196 195 192 190 191 191 188 186 186 184 185 184 183 184 183 178 176
328 314 268 262 281 285 278 274 288 304 295 283 280 151 268 281 258 102 77 52 14 3 3 4 1 357 356 355 354 353 351 349 345 338 334 332 329 326 325 325 324 324 322 319 314 309 306 306 306 306 308 310 311 312 309 307 308 308 310 316 317 319 322 320 320 317 308 300 293 279 251 224 218 217 213 212 208 204 203 200 198 197 194 191 190 191 190 189 188 187 186 185 185 186 186 184 181
292 299 310 307 294 280 270 272 294 295 270 265 178 103 340 295 271 55 72 64 18 2 360 358 355 354 356 356 353 349 344 341 335 331 329 327 323 322 322 322 321 320 319 317 315 311 307 304 304 303 302 303 306 308 306 303 302 303 303 308 313 316 319 320 322 323 319 310 301 292 273 238 218 214 214 210 205 202 200 197 197 196 194 192 190 190 192 192 190 189 188 187 186 187 189 188 185
279 4 352 329 305 272 256 259 180 234 281 174 144 99 315 276 251 99 102 67 27 12 2 356 356 355 353 350 345 340 338 333 329 326 325 323 320 320 320 319 319 318 316 314 313 311 307 303 302 301 299 298 300 302 303 300 298 298 297 299 306 311 313 317 318 318 321 318 309 304 295 265 227 211 211 209 202 199 198 194 195 195 192 191 190 190 193 194 192 190 189 188 187 188 190 189 187
19 28 6 336 321 316 286 284 250 264 269 152 142 13 306 269 251 122 117 58 26 12 6 360 357 350 344 341 336 334 334 328 324 323 322 319 317 317 317 317 317 315 314 312 310 309 306 302 300 298 297 296 295 295 298 298 294 293 292 291 298 305 306 310 313 312 317 320 316 310 307 293 257 218 207 206 200 197 198 195 193 195 193 192 191 189 192 194 192 190 189 189 189 189 190 190 189
34 32 16 345 330 321 300 306 312 290 270 167 178 340 284 268 217 134 108 47 19 9 9 1 350 340 335 334 329 329 329 324 322 321 320 318 316 316 316 315 315 312 311 310 308 306 304 301 299 296 295 295 292 290 292 294 293 291 288 283 287 297 300 303 307 310 313 316 317 313 308 305 287 244 212 205 200 195 197 196 194 195 195 194 194 192 193 194 192 190 191 190 189 190 191 191 192
64 90 15 293 285 285 288 318 328 305 304 282 241 216 248 286 139 139 114 39 12 6 4 351 339 333 332 329 325 327 326 323 322 321 320 320 318 317 316 314 312 310 309 308 307 305 302 300 298 295 294 292 291 288 286 287 289 290 286 278 277 286 294 298 300 304 309 310 314 314 309 306 301 275 226 206 200 194 194 197 194 193 195 195 195 194 193 193 192 190 191 191 190 189 189 191 193
100 122 249 257 224 261 276 309 313 290 301 295 224 202 242 88 126 138 102 8 5 0 349 337 333 331 331 327 325 327 324 323 324 322 322 321 319 319 318 313 308 307 308 306 305 304 302 300 297 294 292 289 288 287 283 282 284 286 284 276 273 280 287 293 294 297 307 310 310 314 310 305 306 296 248 209 200 198 196 197 195 193 194 194 193 192 192 192 192 190 190 190 189 188 189 191 193
131 211 267 96 97 267 276 281 197 252 280 279 254 273 281 143 135 132 27 358 354 346 336 333 331 331 331 328 328 329 326 325 324 322 322 321 319 318 315 312 307 306 307 306 305 303 301 300 297 293 290 288 286 285 282 280 281 283 282 276 271 275 282 288 294 297 305 311 310 312 313 308 306 306 277 219 200 198 198 197 196 194 193 193 192 191 190 190 190 190 189 189 187 187 189 191 192
194 264 352 91 145 147 150 271 297 282 272 269 278 285 287 285 229 110 6 350 345 338 335 332 331 334 331 329 331 331 328 325 323 323 322 320 318 314 312 310 308 307 307 307 306 305 302 300 297 292 289 288 286 285 283 279 278 279 278 276 270 270 278 284 293 300 304 309 309 310 315 311 305 309 301 247 204 196 197 196 195 195 193 192 191 190 190 189 188 189 190 189 187 186 188 191 191
19 293 37 62 233 180 138 180 298 289 281 282 291 295 294 282 293 9 346 345 343 338 335 331 331 333 330 329 331 330 329 326 325 324 321 319 315 312 311 310 311 311 310 309 308 306 304 300 297 293 289 287 286 284 281 276 275 274 272 275 271 267 273 279 286 296 302 305 307 309 311 311 308 309 311 282 217 197 196 195 193 193 192 192 191 189 189 189 188 189 189 188 187 186 186 189 190
90 148 144 235 276 204 186 156 271 270 274 282 299 314 313 186 82 350 336 345 343 334 332 329 328 328 327 328 329 329 329 327 324 321 318 316 311 310 312 313 314 315 313 313 314 313 311 308 305 299 291 287 284 282 280 276 275 271 267 271 270 265 268 273 279 287 295 300 303 307 307 309 310 308 311 303 243 202 194 194 192 192 192 190 190 190 189 188 187 189 188 187 186 186 186 188 189
172 190 187 186 147 156 222 231 174 238 263 268 289 296 279 134 57 341 333 343 338 331 327 323 323 325 326 327 328 329 328 323 320 318 315 314 313 315 317 317 318 320 320 321 321 320 318 314 312 310 305 298 290 284 280 277 275 271 264 264 266 265 265 267 275 281 287 296 300 303 304 306 310 307 309 311 276 212 193 193 192 191 191 189 188 189 188 186 185 187 188 186 186 186 186 187 189
215 214 192 168 147 145 258 258 163 170 241 237 266 280 277 263 357 323 335 337 331 328 323 320 323 326 325 326 328 328 325 320 318 317 316 315 317 320 320 319 321 322 321 321 321 321 317 313 314 316 315 311 306 299 290 281 277 273 266 261 262 264 264 262 269 277 280 291 298 300 302 303 307 309 309 314 296 229 197 193 193 190 191 189 186 187 187 186 185 185 186 187 187 187 187 187 189